This is the latest recevied weather packets stored in our database for station/object VA3WWD-2. If no packets are shown the sender has not sent any weather packets the latest 10 day(s).
| Time | Temp. | Humidity | Pressure | Rain* | Wind** | Luminosity | Snow |
|---|---|---|---|---|---|---|---|
| 1777774165 | 0.56° C | 41% | - | 0 mm | 0 m/s | - | - |
| 1777770578 | 1.11° C | 40% | - | 0 mm | 0 m/s | - | - |
| 1777770280 | 1.67° C | 39% | - | 0 mm | 0 m/s | - | - |
| 1777769681 | 2.22° C | 40% | - | 0 mm | 0 m/s | - | - |
| 1777767887 | 2.78° C | 35% | - | 0 mm | 0 m/s | - | - |
| 1777766990 | 3.89° C | 29% | - | 0 mm | 0 m/s | - | - |
| 1777761310 | 6.11° C | 32% | - | 0 mm | 0 m/s | - | - |
| 1777761012 | 5.56° C | 29% | - | 0 mm | 0 m/s | - | - |
| 1777760711 | 5.56° C | 30% | - | 0 mm | 0 m/s | - | - |
| 1777760413 | 4.44° C | 33% | - | 0 mm | 0 m/s | - | - |
| 1777760115 | 3.89° C | 35% | - | 0 mm | 0 m/s | - | - |
| 1777758619 | 3.89° C | 39% | - | 0 mm | 0 m/s | - | - |
| 1777758021 | 3.89° C | 38% | - | 0 mm | 0 m/s | - | - |
| 1777757723 | 3.33° C | 39% | - | 0 mm | 0 m/s | - | - |
| 1777757425 | 3.33° C | 40% | - | 0 mm | 0 m/s | - | - |
| 1777757124 | 3.33° C | 40% | - | 0 mm | 0 m/s | - | - |
| 1777756826 | 3.33° C | 42% | - | 0 mm | 0 m/s | - | - |
| 1777756528 | 3.33° C | 42% | - | 0 mm | 0 m/s | - | - |
| 1777755929 | 3.89° C | 43% | - | 0 mm | 0 m/s | - | - |
| 1777755631 | 2.78° C | 44% | - | 0 mm | 0 m/s | - | - |
| 1777755330 | 3.33° C | 43% | - | 0 mm | 0 m/s | - | - |
| 1777754433 | 3.33° C | 44% | - | 0 mm | 0 m/s | - | - |
| 1777753536 | 2.78° C | 46% | - | 0 mm | 0 m/s | - | - |
| 1777752940 | 3.33° C | 47% | - | 0 mm | 0 m/s | - | - |
| 1777752639 | 3.33° C | 47% | - | 0 mm | 0 m/s | - | - |
* Rain latest hour (hover to see other rain measurements)
** Current wind speed in m/s (hover to see current wind gust speed)